Regional Weather Roundup
Issued by NWS

Home | Current Version | Previous Version | Text Only | Print | Product List | Glossary Off
Versions: 1 2 3 4 5 6 7 8 9 10 11 12 13 14 15 16 17 18 19 20 21 22 23 24 25 26 27 28 29 30 31 32 33 34 35 36 37 38 39 40 41 42 43 44 45 46 47 48 49 50

000
ASUS43 KIND 221909
RWRIN

WEATHER ROUNDUP FOR INDIANA
NATIONAL WEATHER SERVICE INDIANAPOLIS IN
200 PM EST MON JAN 22 2018

NOTE: "FAIR" INDICATES FEW OR NO CLOUDS BELOW 12,000 FEET WITH NO
SIGNIFICANT WEATHER AND/OR OBSTRUCTIONS TO VISIBILITY.

* - STATION DOES NOT REPORT WEATHER SUCH AS PRECIPITATION OR FOG.

+ - STATION NOT QUALITY CONTROLLED BY THE NATIONAL WEATHER SERVICE.
    USE DATA WITH CAUTION...ESPECIALLY DEWPOINT AND RELATIVE
    HUMIDITY OBSERVATIONS.

INZ001>003-010>013-019-020-222000-
NORTHWEST INDIANA

CITY           SKY/WX    TMP DP  RH WIND       PRES   REMARKS
GARY /AIRPORT/ DRIZZLE   54  50  87 S14G28    29.52F
KNOX *+        CLOUDY    52  50  93 S17G25    29.55F
LA PORTE +     CLOUDY    52  48  87 S10G17    29.54F
MICHIGAN CITY+ CLOUDY    52  50  93 S18G28    29.53F
MONTICELLO +   CLOUDY    53  49  86 S15G25    29.54F
RENSSELAER +   CLOUDY    52  45  76 S22G30    29.55S
VALPARAISO     CLOUDY    54  50  86 S21G29    29.54F

$$

LMZ046-743>745-222000-
SOUTHERN LAKE MICHIGAN

STATION/POSITION TIME  TEMP    WIND        PRES    WAVE
                       AIR SEA DIR/SP/G            HT
                 (UTC) (F)     (DEG/KT/KT) (MB)    (FT)
BURNS HARBOR     1840   53     190/ 16/ 23 1000.7F
MICHIGAN CITY    1840   53     170/ 19/ 23   N/A

$$

INZ004-005-014>016-021>024-222000-
NORTH CENTRAL INDIANA

CITY           SKY/WX    TMP DP  RH WIND       PRES   REMARKS
ELKHART        CLOUDY    52  48  87 S12G17    29.58F
GOSHEN         CLOUDY    53  48  83 S22G29    29.58F
LOGANSPORT +   CLOUDY    52  46  82 S18G30    29.58F
PERU/GRISSOM   CLOUDY    53  53 100 S22G35    29.57F
ROCHESTER +    CLOUDY    54  50  87 S18G30    29.58F
SOUTH BEND     CLOUDY    52  48  86 S17       29.56F
WARSAW +       CLOUDY    52  48  87 S13G20    29.59F

$$

INZ006>009-017-018-025>027-222000-
NORTHEAST INDIANA

CITY           SKY/WX    TMP DP  RH WIND       PRES   REMARKS
AUBURN +       PTSUNNY  N/A N/A N/A S14G24    29.64F
FORT WAYNE     PTSUNNY   54  49  83 S21G29    29.64F
HUNTINGTON +   CLOUDY    53  48  84 S16G23    29.62F
KENDALLVILLE + CLOUDY    52  49  89 S17G24    29.62F

$$

INZ028-029-035-036-043>045-051>053-222000-
WEST CENTRAL INDIANA

CITY           SKY/WX    TMP DP  RH WIND       PRES   REMARKS
CRAWFORDSVL +  CLOUDY    51  51 100 S17G30      N/A
GREENCASTLE +  CLOUDY    52  46  82 S14G22    29.60F
LAFAYETTE      CLOUDY    54  49  83 S15G38    29.55F
TERRE HAUTE    CLOUDY    53  48  83 S23G32    29.59F

$$

INZ030>032-037>040-046>048-054>057-064-065-222000-
CENTRAL INDIANA

CITY           SKY/WX    TMP DP  RH WIND       PRES   REMARKS
ANDERSON       PTSUNNY   54  48  82 S17G35    29.67F
COLUMBUS       CLOUDY    50  48  93 S21G30    29.69F
FISHERS *+     CLOUDY    50  50 100 S20G29    29.63F
FRANKFORT +    CLOUDY    55  50  86 S17G28    29.60F
GREENWOOD *+   CLOUDY    52  50  94 S17G26    29.65F
INDIANAPOLIS   CLOUDY    53  48  83 S21G29    29.62F
-EAGLE CREEK   CLOUDY    53  47  79 S14G22    29.62F
MARION +       CLOUDY    52  48  85 S24G32    29.62F
MT COMFORT *+  CLOUDY    52  50  93 S22G30    29.64F
SHELBYVILLE    CLOUDY    53  47  79 S24G39    29.65
ZIONSVILLE +   CLOUDY    51  48  89 S18G25    29.62F

$$

INZ033-034-041-042-049-050-058-059-222000-
EAST CENTRAL INDIANA

CITY           SKY/WX    TMP DP  RH WIND       PRES   REMARKS
MUNCIE         FAIR      55  47  74 S22G35    29.64F
RICHMOND +     CLOUDY    48  46  93 S20G25    29.72F

$$

INZ060-061-067>069-081>083-085>088-222000-
SOUTHWEST INDIANA

CITY           SKY/WX    TMP DP  RH WIND       PRES   REMARKS
EVANSVILLE     CLOUDY    55  52  89 S12G21    29.64F
HUNTINGBURG +  CLOUDY    54  51  90 S18G31    29.66F
WASHINGTON +   CLOUDY    53  50  90 S18       29.63F

$$

INZ062-063-066-070>080-084-089>092-222000-
SOUTH CENTRAL AND SOUTHEAST INDIANA

CITY           SKY/WX    TMP DP  RH WIND       PRES   REMARKS
BATESVILLE *+    N/A    N/A N/A N/A MISG        N/A
BLOOMINGTON    CLOUDY    53  48  83 S18G26    29.63F
FRENCH LICK *+ CLOUDY    52 N/A N/A S13G24    29.66F
MADISON *+     CLOUDY    52  46  82 S14G23    29.75F
NORTH VERNON + CLOUDY    50  46  87 S14G24    29.71F
SEYMOUR +      CLOUDY    54  48  82 S16G24    29.69F

$$





USA.gov is the U.S. government's official web portal to all federal, state and local government web resources and services.